Location: Wald
(31.7579°N, 86.6655°W)
Time: 12:19:02
(UTC+00:00)

CZ-3B R/B - Pass Details

Date: 14 July 2020
Orbit: 159 x 7653 km, 25.7° (Epoch: 09 August)

Event Time Altitude Azimuth Distance (km) Brightness Sun altitude
Rises 06:52:14 0° 238° (WSW) 11,687 8.0 -34.8°
Enters shadow 06:59:52 - 236° (SW) 10,320 7.6 -34.3°
Exits shadow 07:30:30 46° 177° (S) 3,040 4.8 -31.7°
Drops below altitude 10° 07:39:02 10° 101° (ESE) 3,161 5.6 -30.9°
Maximum altitude 10:39:33 42° 191° (S) 1,015 2.7 -3.1°
